QPF
0.00 0.01 0.02 0.04 0.11 0.15 0.14 0.13 0.10 0.07 0.03 0.02 0.01 0.01 0.03 0.03 0.05 0.06 0.09 0.09 0.08 0.08 0.04 0.03 0.02 0.03 0.05 0.03 0.04 0.05 0.05 0.06 0.05 0.03 0.03 0.04 0.04 0.04 0.05 0.05 0.05 0.03 0.03 0.04 0.04 0.03 0.03 0.02 0.03
0.00 0.00 0.02 0.06 0.14 0.16 0.13 0.15 0.12 0.06 0.03 0.02 0.01 0.01 0.02 0.02 0.03 0.05 0.09 0.08 0.07 0.06 0.04 0.03 0.04 0.07 0.07 0.05 0.04 0.05 0.04 0.04 0.05 0.05 0.06 0.06 0.06 0.05 0.05 0.05 0.05 0.03 0.03 0.03 0.03 0.03 0.03 0.02 0.03
0.00 0.00 0.02 0.07 0.12 0.13 0.12 0.12 0.07 0.03 0.02 0.01 0.01 0.01 0.02 0.02 0.04 0.06 0.09 0.07 0.05 0.04 0.04 0.05 0.12 0.13 0.08 0.05 0.04 0.05 0.05 0.05 0.04 0.07 0.08 0.08 0.07 0.05 0.05 0.05 0.04 0.03 0.03 0.02 0.02 0.03 0.03 0.02 0.01
0.00 0.01 0.03 0.08 0.08 0.07 0.09 0.07 0.02 0.02 0.02 0.02 0.02 0.02 0.03 0.02 0.04 0.05 0.07 0.06 0.05 0.04 0.03 0.03 0.04 0.05 0.03 0.02 0.03 0.04 0.05 0.05 0.05 0.05 0.06 0.07 0.06 0.04 0.05 0.06 0.04 0.03 0.02 0.02 0.02 0.02 0.01 0.01 0.01
0.00 0.03 0.07 0.08 0.04 0.04 0.03 0.02 0.02 0.02 0.02 0.03 0.02 0.02 0.02 0.03 0.05 0.05 0.05 0.06 0.05 0.06 0.06 0.03 0.03 0.02 0.02 0.02 0.02 0.03 0.05 0.07 0.08 0.05 0.05 0.05 0.05 0.04 0.04 0.03 0.03 0.02 0.02 0.01 0.01 0.00 0.00 0.00 0.00
0.01 0.03 0.09 0.08 0.04 0.01 0.01 0.01 0.01 0.01 0.01 0.01 0.02 0.02 0.02 0.03 0.05 0.04 0.03 0.03 0.02 0.04 0.06 0.04 0.04 0.03 0.03 0.03 0.03 0.03 0.04 0.06 0.06 0.04 0.04 0.03 0.03 0.03 0.03 0.02 0.02 0.02 0.01 0.01 0.01 0.00 0.00 0.00 0.00
0.01 0.04 0.06 0.06 0.04 0.02 0.01 0.00 0.00 0.00 0.01 0.00 0.00 0.01 0.02 0.01 0.02 0.02 0.01 0.01 0.01 0.01 0.02 0.03 0.03 0.02 0.02 0.02 0.02 0.03 0.04 0.04 0.04 0.04 0.03 0.03 0.02 0.02 0.03 0.03 0.02 0.03 0.02 0.01 0.01 0.00 0.00 0.00 0.00
0.00 0.01 0.03 0.04 0.05 0.02 0.00 0.00 0.00 0.00 0.01 0.00 0.00 0.01 0.01 0.01 0.00 0.01 0.00 0.00 0.01 0.01 0.01 0.03 0.03 0.02 0.02 0.01 0.01 0.01 0.04 0.04 0.03 0.04 0.04 0.03 0.02 0.03 0.03 0.03 0.03 0.02 0.02 0.01 0.01 0.01 0.01 0.01 0.00
0.00 0.03 0.06 0.03 0.03 0.01 0.00 0.00 0.00 0.00 0.00 0.00 0.00 0.00 0.00 0.00 0.00 0.01 0.01 0.01 0.01 0.01 0.01 0.01 0.02 0.01 0.01 0.01 0.00 0.00 0.01 0.03 0.03 0.03 0.03 0.02 0.02 0.02 0.02 0.03 0.03 0.03 0.03 0.02 0.02 0.02 0.01 0.01 0.01
0.00 0.03 0.03 0.01 0.00 0.00 0.00 0.00 0.00 0.00 0.00 0.00 0.00 0.00 0.00 0.00 0.00 0.01 0.01 0.01 0.01 0.01 0.01 0.01 0.00 0.01 0.01 0.01 0.01 0.01 0.01 0.01 0.02 0.02 0.02 0.01 0.01 0.01 0.01 0.01 0.02 0.02 0.02 0.02 0.01 0.01 0.02 0.02 0.02
0.00 0.01 0.00 0.00 0.00 0.00 0.00 0.00 0.00 0.00 0.01 0.00 0.00 0.00 0.00 0.00 0.01 0.01 0.02 0.01 0.01 0.01 0.01 0.01 0.00 0.00 0.01 0.01 0.01 0.01 0.00 0.01 0.02 0.02 0.01 0.01 0.00 0.00 0.00 0.00 0.01 0.01 0.01 0.01 0.01 0.01 0.01 0.02 0.02
0.00 0.00 0.00 0.00 0.00 0.00 0.00 0.00 0.00 0.00 0.00 0.00 0.00 0.00 0.00 0.00 0.00 0.01 0.01 0.00 0.01 0.01 0.00 0.00 0.00 0.00 0.00 0.01 0.01 0.01 0.00 0.01 0.01 0.02 0.02 0.01 0.00 0.00 0.00 0.00 0.00 0.01 0.01 0.02 0.01 0.01 0.01 0.01 0.01
0.01 0.00 0.00 0.00 0.00 0.00 0.00 0.00 0.00 0.00 0.00 0.00 0.00 0.00 0.00 0.00 0.01 0.01 0.01 0.00 0.00 0.00 0.00 0.00 0.00 0.00 0.00 0.00 0.00 0.01 0.01 0.01 0.01 0.02 0.02 0.01 0.01 0.00 0.00 0.00 0.00 0.00 0.01 0.02 0.02 0.01 0.01 0.01 0.01
0.00 0.00 0.00 0.00 0.00 0.00 0.00 0.00 0.00 0.00 0.00 0.00 0.00 0.00 0.00 0.00 0.00 0.01 0.00 0.00 0.00 0.00 0.01 0.01 0.00 0.00 0.01 0.01 0.00 0.00 0.00 0.01 0.01 0.02 0.02 0.01 0.00 0.00 0.00 0.00 0.00 0.00 0.01 0.01 0.01 0.01 0.01 0.02 0.02
0.00 0.00 0.00 0.00 0.00 0.00 0.00 0.00 0.00 0.00 0.00 0.00 0.00 0.00 0.00 0.00 0.00 0.01 0.01 0.00 0.00 0.00 0.01 0.01 0.01 0.00 0.01 0.01 0.00 0.00 0.00 0.00 0.01 0.02 0.02 0.01 0.00 0.00 0.00 0.00 0.00 0.00 0.01 0.01 0.01 0.01 0.02 0.02 0.01
0.00 0.00 0.01 0.00 0.00 0.00 0.00 0.01 0.00 0.00 0.00 0.01 0.01 0.00 0.00 0.00 0.00 0.00 0.01 0.01 0.00 0.00 0.00 0.01 0.01 0.01 0.02 0.01 0.00 0.00 0.00 0.00 0.01 0.02 0.02 0.01 0.00 0.00 0.00 0.00 0.00 0.00 0.01 0.01 0.01 0.01 0.01 0.01 0.01
0.00 0.01 0.01 0.00 0.00 0.00 0.00 0.01 0.00 0.00 0.00 0.01 0.01 0.01 0.00 0.00 0.00 0.00 0.00 0.01 0.00 0.01 0.00 0.00 0.01 0.01 0.01 0.01 0.00 0.00 0.00 0.00 0.00 0.00 0.01 0.01 0.01 0.00 0.00 0.00 0.00 0.00 0.00 0.00 0.00 0.01 0.01 0.01 0.02
0.01 0.00 0.00 0.00 0.00 0.00 0.00 0.00 0.00 0.00 0.00 0.01 0.01 0.02 0.01 0.00 0.00 0.00 0.00 0.00 0.00 0.00 0.00 0.00 0.01 0.01 0.01 0.02 0.00 0.00 0.00 0.00 0.00 0.00 0.00 0.00 0.01 0.01 0.00 0.00 0.00 0.00 0.00 0.00 0.01 0.01 0.01 0.02 0.03
0.00 0.00 0.00 0.00 0.00 0.00 0.00 0.00 0.00 0.00 0.00 0.01 0.01 0.01 0.01 0.00 0.00 0.00 0.00 0.01 0.01 0.00 0.00 0.00 0.01 0.01 0.01 0.02 0.02 0.01 0.01 0.00 0.00 0.00 0.00 0.00 0.00 0.01 0.01 0.01 0.00 0.00 0.00 0.01 0.01 0.01 0.02 0.02 0.03
0.00 0.00 0.00 0.00 0.00 0.00 0.00 0.00 0.00 0.00 0.00 0.00 0.00 0.01 0.00 0.00 0.00 0.00 0.00 0.01 0.01 0.01 0.00 0.01 0.00 0.01 0.01 0.01 0.02 0.02 0.02 0.00 0.00 0.00 0.00 0.01 0.01 0.01 0.01 0.01 0.01 0.01 0.01 0.01 0.01 0.02 0.02 0.02 0.01
0.00 0.00 0.00 0.00 0.00 0.00 0.00 0.00 0.00 0.00 0.00 0.00 0.00 0.00 0.00 0.00 0.00 0.00 0.00 0.00 0.00 0.01 0.01 0.00 0.00 0.01 0.01 0.01 0.01 0.02 0.02 0.01 0.01 0.01 0.01 0.02 0.01 0.01 0.01 0.00 0.01 0.01 0.01 0.02 0.02 0.02 0.04 0.03 0.02
0.00 0.00 0.00 0.00 0.00 0.00 0.00 0.01 0.01 0.00 0.00 0.00 0.00 0.00 0.00 0.00 0.00 0.00 0.00 0.00 0.01 0.01 0.01 0.01 0.01 0.01 0.01 0.01 0.01 0.01 0.01 0.01 0.00 0.01 0.01 0.01 0.01 0.01 0.01 0.01 0.00 0.00 0.01 0.01 0.01 0.02 0.03 0.04 0.03
0.00 0.00 0.00 0.00 0.00 0.01 0.00 0.01 0.01 0.01 0.01 0.01 0.00 0.00 0.00 0.00 0.00 0.00 0.00 0.00 0.00 0.00 0.01 0.01 0.01 0.01 0.01 0.00 0.01 0.01 0.01 0.01 0.00 0.00 0.01 0.00 0.00 0.00 0.01 0.01 0.01 0.00 0.01 0.01 0.01 0.01 0.02 0.02 0.03
0.00 0.00 0.00 0.01 0.01 0.01 0.00 0.01 0.01 0.01 0.01 0.01 0.00 0.00 0.00 0.00 0.00 0.00 0.00 0.00 0.00 0.00 0.00 0.01 0.01 0.02 0.01 0.00 0.00 0.00 0.01 0.00 0.00 0.00 0.00 0.01 0.01 0.00 0.00 0.00 0.01 0.01 0.01 0.01 0.01 0.01 0.01 0.01 0.02
0.00 0.01 0.02 0.02 0.02 0.02 0.00 0.00 0.00 0.00 0.00 0.00 0.00 0.00 0.00 0.00 0.00 0.01 0.01 0.01 0.01 0.01 0.01 0.01 0.01 0.01 0.01 0.01 0.01 0.00 0.00 0.00 0.00 0.00 0.00 0.01 0.00 0.00 0.00 0.00 0.01 0.01 0.01 0.01 0.00 0.01 0.01 0.01 0.01
0.00 0.01 0.02 0.03 0.02 0.02 0.00 0.00 0.00 0.00 0.00 0.00 0.00 0.00 0.00 0.00 0.00 0.01 0.01 0.01 0.01 0.00 0.00 0.01 0.01 0.01 0.01 0.01 0.01 0.00 0.00 0.00 0.00 0.00 0.00 0.00 0.00 0.00 0.00 0.00 0.00 0.00 0.00 0.01 0.01 0.01 0.01 0.01 0.01
0.00 0.01 0.00 0.01 0.01 0.01 0.01 0.00 0.00 0.00 0.00 0.00 0.00 0.01 0.01 0.01 0.01 0.01 0.01 0.01 0.02 0.01 0.00 0.00 0.01 0.01 0.01 0.01 0.01 0.01 0.01 0.01 0.01 0.00 0.00 0.00 0.00 0.00 0.00 0.00 0.00 0.00 0.00 0.01 0.01 0.01 0.01 0.01 0.01
0.00 0.00 0.00 0.01 0.01 0.02 0.01 0.01 0.01 0.01 0.00 0.00 0.01 0.01 0.01 0.01 0.02 0.02 0.01 0.01 0.01 0.01 0.00 0.01 0.01 0.01 0.01 0.01 0.01 0.01 0.01 0.01 0.01 0.00 0.00 0.01 0.00 0.01 0.01 0.01 0.00 0.00 0.00 0.00 0.00 0.00 0.01 0.01 0.01
0.00 0.00 0.01 0.01 0.01 0.01 0.02 0.02 0.01 0.00 0.00 0.00 0.00 0.00 0.01 0.01 0.01 0.02 0.01 0.01 0.00 0.00 0.01 0.01 0.00 0.01 0.01 0.01 0.01 0.01 0.01 0.01 0.01 0.01 0.01 0.01 0.01 0.00 0.01 0.01 0.01 0.00 0.00 0.00 0.00 0.00 0.00 0.01 0.01
0.00 0.00 0.00 0.01 0.01 0.01 0.02 0.02 0.00 0.00 0.00 0.00 0.00 0.00 0.01 0.01 0.01 0.01 0.01 0.01 0.00 0.00 0.01 0.01 0.01 0.01 0.01 0.01 0.01 0.01 0.01 0.01 0.01 0.01 0.02 0.02 0.01 0.01 0.00 0.00 0.00 0.00 0.00 0.00 0.00 0.00 0.00 0.00 0.01
MSLP
1009.34 1010.08 1011.03 1012.07 1013.09 1013.97 1014.64 1015.09 1015.33 1015.40 1015.40 1015.37 1015.36 1015.39 1015.46 1015.52 1015.55 1015.51 1015.39 1015.21 1014.98 1014.77 1014.59 1014.48 1014.44 1014.47 1014.52 1014.55 1014.52 1014.42 1014.23 1013.98 1013.71 1013.45 1013.24 1013.10 1013.05 1013.05 1013.10 1013.14 1013.15 1013.12 1013.04 1012.91 1012.76 1012.61 1012.46 1012.34 1012.25
1009.78 1010.65 1011.68 1012.74 1013.70 1014.48 1015.02 1015.32 1015.43 1015.41 1015.33 1015.27 1015.26 1015.30 1015.36 1015.42 1015.43 1015.36 1015.22 1015.02 1014.80 1014.60 1014.46 1014.41 1014.44 1014.52 1014.62 1014.69 1014.69 1014.61 1014.45 1014.23 1013.97 1013.73 1013.54 1013.41 1013.34 1013.33 1013.35 1013.36 1013.35 1013.31 1013.22 1013.10 1012.95 1012.79 1012.64 1012.49 1012.35
1010.35 1011.32 1012.37 1013.39 1014.25 1014.88 1015.25 1015.39 1015.35 1015.23 1015.10 1015.01 1015.01 1015.06 1015.14 1015.21 1015.22 1015.14 1014.98 1014.77 1014.56 1014.39 1014.29 1014.28 1014.37 1014.50 1014.65 1014.76 1014.80 1014.76 1014.64 1014.46 1014.25 1014.04 1013.87 1013.75 1013.67 1013.63 1013.61 1013.58 1013.54 1013.48 1013.38 1013.26 1013.12 1012.97 1012.80 1012.64 1012.47
1011.00 1012.02 1013.06 1013.99 1014.70 1015.16 1015.35 1015.32 1015.15 1014.94 1014.77 1014.69 1014.70 1014.78 1014.89 1014.97 1014.98 1014.90 1014.73 1014.53 1014.32 1014.17 1014.10 1014.14 1014.26 1014.43 1014.62 1014.77 1014.85 1014.86 1014.79 1014.66 1014.50 1014.34 1014.20 1014.09 1014.00 1013.94 1013.88 1013.82 1013.75 1013.66 1013.56 1013.45 1013.32 1013.17 1013.01 1012.83 1012.64
1011.66 1012.69 1013.67 1014.48 1015.04 1015.32 1015.34 1015.17 1014.90 1014.64 1014.45 1014.39 1014.43 1014.55 1014.69 1014.79 1014.80 1014.71 1014.54 1014.33 1014.13 1013.98 1013.94 1013.99 1014.14 1014.34 1014.55 1014.72 1014.84 1014.89 1014.87 1014.80 1014.70 1014.60 1014.50 1014.41 1014.33 1014.25 1014.17 1014.08 1013.99 1013.89 1013.78 1013.68 1013.56 1013.42 1013.27 1013.08 1012.88
1012.26 1013.25 1014.15 1014.83 1015.24 1015.36 1015.25 1014.98 1014.65 1014.37 1014.21 1014.18 1014.28 1014.44 1014.61 1014.72 1014.73 1014.62 1014.43 1014.21 1014.00 1013.85 1013.81 1013.87 1014.02 1014.22 1014.43 1014.62 1014.76 1014.83 1014.86 1014.85 1014.82 1014.78 1014.73 1014.68 1014.62 1014.55 1014.46 1014.36 1014.25 1014.14 1014.04 1013.94 1013.83 1013.70 1013.55 1013.37 1013.16
1012.71 1013.65 1014.45 1015.00 1015.28 1015.28 1015.08 1014.76 1014.43 1014.19 1014.08 1014.11 1014.27 1014.47 1014.66 1014.77 1014.77 1014.64 1014.42 1014.17 1013.94 1013.77 1013.71 1013.75 1013.88 1014.07 1014.26 1014.44 1014.59 1014.69 1014.75 1014.79 1014.83 1014.85 1014.87 1014.87 1014.85 1014.79 1014.71 1014.61 1014.50 1014.39 1014.29 1014.19 1014.09 1013.97 1013.82 1013.63 1013.42
1013.01 1013.87 1014.56 1015.00 1015.18 1015.11 1014.87 1014.56 1014.27 1014.09 1014.05 1014.17 1014.38 1014.62 1014.83 1014.93 1014.90 1014.74 1014.49 1014.20 1013.93 1013.73 1013.64 1013.64 1013.74 1013.89 1014.05 1014.21 1014.35 1014.46 1014.55 1014.64 1014.72 1014.81 1014.89 1014.95 1014.97 1014.96 1014.90 1014.81 1014.70 1014.59 1014.48 1014.38 1014.28 1014.15 1014.01 1013.83 1013.62
1013.16 1013.93 1014.52 1014.87 1014.97 1014.87 1014.64 1014.37 1014.15 1014.06 1014.12 1014.31 1014.58 1014.85 1015.06 1015.14 1015.08 1014.88 1014.59 1014.26 1013.95 1013.71 1013.57 1013.54 1013.59 1013.69 1013.82 1013.95 1014.06 1014.18 1014.29 1014.41 1014.54 1014.68 1014.82 1014.93 1015.00 1015.02 1014.99 1014.91 1014.81 1014.69 1014.58 1014.47 1014.35 1014.22 1014.08 1013.90 1013.71
1013.21 1013.89 1014.39 1014.67 1014.73 1014.63 1014.43 1014.23 1014.10 1014.10 1014.24 1014.50 1014.80 1015.09 1015.29 1015.35 1015.25 1015.02 1014.68 1014.31 1013.97 1013.70 1013.52 1013.44 1013.45 1013.51 1013.59 1013.69 1013.79 1013.90 1014.02 1014.16 1014.32 1014.50 1014.68 1014.83 1014.93 1014.98 1014.97 1014.91 1014.81 1014.69 1014.56 1014.44 1014.31 1014.17 1014.02 1013.85 1013.68
1013.23 1013.84 1014.27 1014.49 1014.53 1014.44 1014.29 1014.16 1014.12 1014.20 1014.40 1014.70 1015.02 1015.29 1015.47 1015.49 1015.36 1015.09 1014.73 1014.34 1013.97 1013.68 1013.48 1013.37 1013.34 1013.37 1013.44 1013.51 1013.60 1013.69 1013.81 1013.96 1014.13 1014.32 1014.52 1014.69 1014.81 1014.88 1014.88 1014.82 1014.72 1014.60 1014.46 1014.32 1014.18 1014.03 1013.88 1013.73 1013.57
1013.31 1013.85 1014.21 1014.40 1014.43 1014.36 1014.26 1014.20 1014.22 1014.35 1014.58 1014.88 1015.18 1015.42 1015.55 1015.54 1015.37 1015.08 1014.71 1014.32 1013.95 1013.66 1013.45 1013.34 1013.31 1013.33 1013.38 1013.45 1013.53 1013.62 1013.73 1013.87 1014.03 1014.21 1014.39 1014.55 1014.67 1014.74 1014.75 1014.69 1014.59 1014.47 1014.32 1014.17 1014.02 1013.88 1013.73 1013.59 1013.46
1013.49 1013.97 1014.28 1014.43 1014.47 1014.42 1014.36 1014.34 1014.40 1014.54 1014.76 1015.02 1015.27 1015.45 1015.53 1015.47 1015.28 1014.97 1014.61 1014.24 1013.90 1013.63 1013.45 1013.36 1013.35 1013.40 1013.46 1013.55 1013.63 1013.72 1013.82 1013.93 1014.06 1014.21 1014.35 1014.48 1014.58 1014.63 1014.63 1014.57 1014.48 1014.36 1014.22 1014.08 1013.93 1013.79 1013.66 1013.53 1013.42
1013.79 1014.21 1014.48 1014.61 1014.64 1014.62 1014.59 1014.59 1014.65 1014.77 1014.94 1015.12 1015.29 1015.39 1015.39 1015.28 1015.07 1014.77 1014.43 1014.10 1013.81 1013.60 1013.48 1013.44 1013.48 1013.57 1013.68 1013.80 1013.90 1014.00 1014.08 1014.16 1014.25 1014.33 1014.42 1014.50 1014.55 1014.58 1014.57 1014.52 1014.44 1014.34 1014.22 1014.10 1013.97 1013.85 1013.73 1013.62 1013.52
1014.16 1014.53 1014.76 1014.88 1014.92 1014.92 1014.90 1014.91 1014.94 1015.01 1015.10 1015.18 1015.24 1015.24 1015.16 1015.00 1014.77 1014.49 1014.19 1013.92 1013.70 1013.56 1013.51 1013.56 1013.67 1013.82 1014.00 1014.16 1014.30 1014.41 1014.49 1014.53 1014.56 1014.58 1014.59 1014.60 1014.61 1014.60 1014.58 1014.55 1014.50 1014.43 1014.35 1014.26 1014.16 1014.06 1013.96 1013.86 1013.77
1014.54 1014.85 1015.05 1015.17 1015.22 1015.24 1015.24 1015.24 1015.24 1015.24 1015.23 1015.20 1015.13 1015.02 1014.86 1014.66 1014.41 1014.15 1013.91 1013.70 1013.57 1013.51 1013.55 1013.68 1013.88 1014.11 1014.36 1014.59 1014.77 1014.90 1014.97 1014.98 1014.95 1014.90 1014.84 1014.78 1014.74 1014.70 1014.68 1014.66 1014.64 1014.61 1014.58 1014.53 1014.47 1014.40 1014.32 1014.23 1014.14
1014.86 1015.12 1015.29 1015.41 1015.49 1015.53 1015.55 1015.54 1015.50 1015.43 1015.31 1015.16 1014.98 1014.77 1014.53 1014.28 1014.04 1013.81 1013.62 1013.49 1013.43 1013.46 1013.59 1013.80 1014.08 1014.39 1014.71 1015.00 1015.23 1015.38 1015.45 1015.44 1015.36 1015.25 1015.12 1015.00 1014.90 1014.84 1014.81 1014.81 1014.83 1014.84 1014.85 1014.85 1014.83 1014.78 1014.72 1014.65 1014.56
1015.07 1015.27 1015.43 1015.56 1015.67 1015.76 1015.81 1015.80 1015.72 1015.57 1015.36 1015.09 1014.80 1014.50 1014.20 1013.92 1013.68 1013.49 1013.36 1013.30 1013.32 1013.42 1013.62 1013.90 1014.24 1014.62 1015.00 1015.34 1015.62 1015.80 1015.88 1015.85 1015.74 1015.58 1015.39 1015.22 1015.09 1015.00 1014.96 1014.98 1015.02 1015.07 1015.11 1015.14 1015.15 1015.13 1015.10 1015.04 1014.96
1015.14 1015.30 1015.46 1015.62 1015.79 1015.92 1016.00 1016.00 1015.89 1015.68 1015.37 1015.01 1014.62 1014.24 1013.90 1013.61 1013.39 1013.24 1013.17 1013.17 1013.25 1013.42 1013.66 1013.98 1014.37 1014.79 1015.21 1015.59 1015.90 1016.11 1016.20 1016.17 1016.04 1015.85 1015.63 1015.42 1015.26 1015.15 1015.11 1015.12 1015.17 1015.24 1015.30 1015.35 1015.38 1015.38 1015.36 1015.32 1015.27
1015.09 1015.23 1015.41 1015.63 1015.86 1016.06 1016.18 1016.18 1016.05 1015.77 1015.39 1014.94 1014.47 1014.03 1013.66 1013.38 1013.19 1013.09 1013.08 1013.14 1013.27 1013.47 1013.74 1014.07 1014.47 1014.89 1015.33 1015.73 1016.06 1016.29 1016.40 1016.39 1016.26 1016.06 1015.83 1015.60 1015.42 1015.29 1015.23 1015.24 1015.28 1015.34 1015.40 1015.45 1015.47 1015.48 1015.48 1015.47 1015.45
1014.99 1015.13 1015.36 1015.65 1015.96 1016.22 1016.38 1016.39 1016.22 1015.88 1015.42 1014.89 1014.36 1013.88 1013.50 1013.23 1013.08 1013.05 1013.09 1013.21 1013.37 1013.59 1013.86 1014.18 1014.55 1014.96 1015.38 1015.78 1016.12 1016.37 1016.50 1016.51 1016.41 1016.23 1016.00 1015.78 1015.59 1015.45 1015.37 1015.35 1015.36 1015.40 1015.43 1015.45 1015.47 1015.47 1015.48 1015.49 1015.53
1014.88 1015.08 1015.38 1015.76 1016.15 1016.48 1016.66 1016.66 1016.45 1016.04 1015.49 1014.89 1014.30 1013.78 1013.40 1013.16 1013.07 1013.09 1013.20 1013.36 1013.55 1013.78 1014.02 1014.31 1014.64 1015.00 1015.39 1015.77 1016.10 1016.37 1016.53 1016.58 1016.52 1016.37 1016.18 1015.98 1015.79 1015.65 1015.55 1015.50 1015.48 1015.47 1015.46 1015.44 1015.42 1015.42 1015.43 1015.48 1015.56
1014.84 1015.12 1015.52 1016.00 1016.47 1016.84 1017.04 1017.00 1016.73 1016.23 1015.60 1014.91 1014.26 1013.72 1013.34 1013.13 1013.09 1013.18 1013.35 1013.56 1013.77 1013.99 1014.22 1014.46 1014.73 1015.04 1015.37 1015.72 1016.05 1016.32 1016.52 1016.61 1016.61 1016.53 1016.39 1016.23 1016.07 1015.93 1015.82 1015.74 1015.67 1015.61 1015.55 1015.49 1015.44 1015.42 1015.44 1015.52 1015.65
1014.89 1015.27 1015.79 1016.36 1016.90 1017.30 1017.48 1017.39 1017.03 1016.44 1015.70 1014.93 1014.22 1013.65 1013.27 1013.10 1013.11 1013.26 1013.49 1013.74 1013.98 1014.20 1014.39 1014.59 1014.81 1015.06 1015.35 1015.66 1015.98 1016.27 1016.50 1016.65 1016.72 1016.71 1016.64 1016.54 1016.42 1016.30 1016.19 1016.10 1016.00 1015.90 1015.79 1015.70 1015.62 1015.58 1015.60 1015.70 1015.87
1015.02 1015.52 1016.14 1016.80 1017.38 1017.78 1017.92 1017.75 1017.30 1016.59 1015.76 1014.90 1014.13 1013.53 1013.16 1013.01 1013.07 1013.27 1013.55 1013.84 1014.11 1014.33 1014.51 1014.67 1014.85 1015.05 1015.31 1015.60 1015.91 1016.22 1016.49 1016.71 1016.85 1016.92 1016.94 1016.90 1016.84 1016.76 1016.67 1016.58 1016.47 1016.35 1016.22 1016.09 1016.00 1015.95 1015.98 1016.09 1016.29
1015.19 1015.81 1016.52 1017.23 1017.82 1018.20 1018.27 1018.02 1017.46 1016.65 1015.72 1014.79 1013.96 1013.34 1012.96 1012.84 1012.93 1013.17 1013.49 1013.82 1014.11 1014.35 1014.53 1014.68 1014.83 1015.02 1015.25 1015.53 1015.85 1016.19 1016.51 1016.79 1017.01 1017.16 1017.26 1017.31 1017.31 1017.29 1017.24 1017.17 1017.07 1016.95 1016.82 1016.70 1016.60 1016.55 1016.58 1016.71 1016.92
1015.38 1016.08 1016.85 1017.57 1018.14 1018.46 1018.46 1018.11 1017.46 1016.56 1015.56 1014.57 1013.71 1013.07 1012.70 1012.58 1012.69 1012.96 1013.31 1013.66 1013.98 1014.23 1014.43 1014.59 1014.75 1014.94 1015.18 1015.48 1015.82 1016.19 1016.56 1016.90 1017.19 1017.42 1017.60 1017.73 1017.81 1017.85 1017.85 1017.83 1017.77 1017.68 1017.57 1017.47 1017.39 1017.36 1017.40 1017.53 1017.74
1015.55 1016.29 1017.06 1017.76 1018.27 1018.51 1018.43 1018.00 1017.27 1016.32 1015.28 1014.27 1013.40 1012.76 1012.39 1012.28 1012.39 1012.67 1013.02 1013.39 1013.72 1014.00 1014.22 1014.41 1014.61 1014.83 1015.11 1015.44 1015.83 1016.24 1016.65 1017.05 1017.40 1017.70 1017.95 1018.15 1018.30 1018.41 1018.48 1018.51 1018.50 1018.47 1018.41 1018.35 1018.31 1018.30 1018.36 1018.49 1018.69
1015.68 1016.41 1017.13 1017.75 1018.18 1018.33 1018.15 1017.66 1016.90 1015.94 1014.90 1013.92 1013.08 1012.46 1012.10 1011.99 1012.09 1012.35 1012.69 1013.05 1013.38 1013.68 1013.94 1014.18 1014.44 1014.72 1015.06 1015.45 1015.89 1016.35 1016.81 1017.26 1017.66 1018.01 1018.31 1018.56 1018.78 1018.95 1019.08 1019.18 1019.24 1019.27 1019.27 1019.27 1019.27 1019.30 1019.38 1019.52 1019.71
1015.79 1016.45 1017.07 1017.58 1017.88 1017.93 1017.69 1017.16 1016.40 1015.47 1014.50 1013.58 1012.81 1012.23 1011.89 1011.77 1011.85 1012.07 1012.37 1012.70 1013.03 1013.35 1013.64 1013.95 1014.27 1014.64 1015.06 1015.53 1016.03 1016.55 1017.06 1017.54 1017.97 1018.36 1018.70 1018.99 1019.25 1019.47 1019.66 1019.82 1019.95 1020.04 1020.11 1020.16 1020.22 1020.29 1020.39 1020.53 1020.71
Thickness
5808 5812 5812 5799 5777 5763 5755 5761 5771 5773 5777 5786 5791 5787 5775 5767 5759 5749 5769 5781 5782 5780 5779 5778 5778 5777 5777 5777 5777 5777 5777 5778 5778 5778 5777 5777 5777 5777 5776 5776 5775 5774 5774 5774 5774 5774 5774 5774 5774
5811 5814 5804 5788 5764 5750 5749 5762 5765 5772 5781 5789 5790 5785 5776 5769 5772 5769 5773 5779 5781 5779 5777 5776 5775 5774 5774 5775 5775 5775 5775 5775 5775 5775 5775 5775 5774 5774 5774 5774 5773 5772 5772 5772 5772 5772 5771 5771 5771
5811 5811 5792 5777 5761 5752 5751 5763 5769 5778 5787 5788 5782 5780 5771 5766 5772 5771 5775 5780 5780 5777 5774 5772 5772 5772 5772 5772 5773 5773 5773 5773 5773 5773 5773 5772 5772 5772 5771 5771 5771 5770 5770 5770 5769 5769 5769 5769 5769
5809 5799 5789 5768 5756 5763 5765 5769 5776 5777 5782 5787 5782 5771 5768 5774 5774 5775 5779 5780 5778 5776 5772 5770 5770 5770 5770 5770 5770 5771 5771 5771 5770 5771 5770 5770 5769 5769 5769 5768 5768 5767 5767 5767 5767 5766 5766 5766 5766
5806 5786 5768 5758 5758 5767 5774 5779 5781 5775 5775 5779 5778 5763 5760 5772 5777 5778 5778 5778 5776 5774 5772 5769 5768 5767 5767 5767 5768 5768 5768 5768 5768 5768 5768 5767 5767 5766 5766 5765 5765 5765 5764 5764 5764 5763 5763 5763 5763
5789 5781 5757 5749 5756 5767 5775 5781 5779 5775 5775 5778 5775 5763 5758 5771 5773 5774 5776 5776 5775 5773 5771 5767 5766 5765 5765 5765 5765 5765 5765 5765 5765 5765 5765 5764 5764 5763 5763 5762 5762 5761 5761 5761 5761 5760 5760 5760 5760
5780 5769 5756 5754 5753 5759 5771 5782 5777 5773 5772 5776 5780 5764 5759 5767 5772 5775 5775 5774 5774 5773 5771 5768 5766 5764 5763 5763 5763 5763 5763 5762 5762 5762 5762 5762 5761 5760 5760 5759 5759 5758 5758 5758 5758 5757 5757 5758 5758
5790 5773 5759 5756 5753 5755 5773 5778 5780 5776 5772 5784 5784 5765 5756 5766 5774 5775 5773 5772 5772 5771 5770 5769 5767 5765 5763 5761 5761 5761 5761 5760 5760 5760 5759 5759 5759 5758 5757 5756 5756 5755 5755 5755 5755 5755 5755 5755 5755
5792 5764 5750 5755 5755 5758 5773 5772 5777 5784 5778 5777 5778 5774 5771 5774 5773 5769 5766 5766 5766 5767 5768 5768 5767 5765 5764 5762 5760 5760 5759 5758 5758 5758 5757 5757 5756 5756 5754 5753 5753 5753 5752 5752 5752 5752 5752 5752 5752
5780 5753 5755 5767 5770 5767 5771 5771 5774 5774 5768 5767 5768 5770 5772 5771 5768 5763 5761 5759 5759 5760 5763 5765 5766 5764 5763 5762 5760 5759 5758 5757 5757 5757 5756 5755 5755 5754 5752 5751 5750 5750 5749 5749 5749 5749 5749 5749 5749
5776 5760 5766 5772 5776 5774 5769 5770 5776 5767 5758 5764 5762 5763 5765 5765 5763 5761 5760 5759 5759 5760 5760 5763 5763 5762 5761 5760 5758 5757 5757 5756 5756 5755 5754 5753 5752 5751 5749 5748 5747 5747 5747 5747 5747 5747 5747 5747 5746
5770 5768 5771 5771 5775 5772 5769 5769 5767 5764 5763 5773 5772 5769 5765 5762 5761 5760 5759 5759 5759 5758 5758 5760 5761 5760 5759 5758 5756 5755 5754 5753 5753 5752 5751 5750 5749 5749 5747 5746 5746 5745 5744 5744 5745 5744 5744 5744 5743
5764 5764 5769 5771 5772 5771 5769 5765 5763 5762 5771 5774 5772 5768 5763 5762 5762 5763 5763 5761 5759 5757 5756 5757 5758 5757 5756 5754 5753 5752 5750 5749 5749 5748 5748 5747 5746 5745 5744 5743 5743 5742 5742 5742 5741 5741 5740 5739 5738
5765 5765 5765 5767 5767 5768 5762 5761 5760 5760 5770 5768 5766 5763 5763 5761 5762 5761 5760 5758 5758 5757 5755 5755 5755 5755 5754 5752 5750 5748 5747 5746 5745 5745 5745 5744 5743 5743 5741 5739 5739 5738 5739 5738 5738 5737 5735 5733 5732
5768 5758 5756 5761 5764 5764 5760 5749 5754 5764 5767 5763 5762 5762 5761 5761 5761 5759 5759 5758 5758 5756 5755 5753 5753 5753 5751 5749 5747 5745 5743 5743 5741 5741 5741 5741 5740 5739 5738 5736 5735 5735 5734 5734 5734 5732 5731 5729 5728
5760 5750 5739 5754 5762 5763 5750 5734 5755 5766 5763 5757 5758 5758 5757 5758 5760 5761 5760 5759 5758 5756 5753 5752 5752 5750 5748 5745 5743 5742 5740 5739 5737 5737 5737 5737 5737 5735 5734 5732 5731 5731 5731 5730 5729 5727 5725 5724 5722
5746 5736 5735 5747 5761 5760 5749 5739 5754 5765 5760 5754 5755 5755 5754 5755 5756 5759 5760 5758 5756 5754 5752 5750 5749 5746 5744 5742 5740 5739 5737 5735 5734 5733 5732 5732 5732 5731 5730 5728 5728 5727 5726 5725 5725 5723 5721 5718 5718
5735 5739 5740 5743 5755 5755 5746 5744 5752 5760 5758 5755 5755 5755 5753 5753 5754 5758 5758 5757 5755 5753 5752 5749 5747 5745 5742 5739 5737 5734 5733 5732 5730 5729 5728 5727 5727 5727 5726 5725 5724 5723 5721 5720 5719 5718 5717 5716 5715
5749 5742 5739 5745 5759 5752 5745 5745 5751 5756 5755 5753 5752 5753 5752 5754 5757 5757 5756 5755 5753 5750 5748 5746 5744 5741 5738 5734 5731 5728 5726 5726 5726 5725 5724 5723 5723 5723 5722 5721 5720 5718 5716 5715 5715 5714 5712 5711 5712
5747 5738 5738 5746 5757 5752 5744 5745 5753 5755 5753 5753 5752 5752 5752 5752 5753 5753 5752 5751 5749 5746 5745 5743 5741 5739 5736 5732 5731 5728 5725 5724 5723 5722 5721 5720 5719 5719 5718 5717 5715 5713 5711 5711 5711 5709 5706 5706 5708
5741 5737 5737 5738 5747 5751 5742 5735 5745 5753 5757 5755 5755 5754 5754 5752 5750 5750 5748 5747 5746 5743 5741 5741 5739 5736 5734 5731 5729 5726 5723 5720 5718 5717 5716 5716 5716 5715 5714 5712 5711 5709 5708 5707 5706 5706 5703 5700 5703
5731 5745 5743 5738 5731 5728 5736 5716 5737 5747 5747 5749 5750 5750 5750 5751 5750 5748 5746 5744 5743 5742 5741 5739 5737 5734 5732 5729 5725 5721 5716 5713 5714 5714 5713 5713 5713 5711 5710 5709 5707 5706 5705 5704 5704 5703 5702 5699 5696
5737 5747 5742 5738 5731 5727 5734 5723 5730 5746 5739 5743 5747 5749 5749 5750 5750 5747 5745 5743 5743 5742 5739 5737 5734 5731 5729 5726 5723 5719 5716 5715 5714 5713 5711 5710 5710 5708 5707 5706 5704 5703 5702 5702 5701 5701 5699 5698 5695
5744 5740 5738 5737 5728 5710 5729 5723 5720 5738 5741 5743 5746 5747 5747 5747 5747 5746 5745 5742 5740 5738 5736 5734 5730 5727 5726 5724 5721 5718 5715 5713 5711 5709 5707 5707 5706 5705 5705 5703 5702 5701 5700 5699 5699 5698 5697 5695 5694
5736 5720 5706 5703 5701 5707 5738 5730 5723 5741 5748 5746 5744 5744 5745 5744 5742 5741 5739 5736 5734 5733 5731 5730 5726 5723 5723 5721 5720 5717 5714 5712 5710 5708 5706 5705 5703 5702 5702 5702 5700 5699 5698 5697 5696 5695 5694 5693 5691
5727 5722 5701 5691 5699 5715 5733 5724 5728 5747 5748 5748 5745 5743 5742 5740 5739 5736 5736 5733 5730 5729 5728 5726 5723 5720 5719 5718 5717 5716 5714 5711 5709 5708 5706 5704 5703 5702 5701 5700 5699 5697 5696 5695 5694 5693 5691 5690 5689
5720 5721 5728 5713 5713 5708 5719 5725 5729 5741 5739 5739 5738 5736 5734 5735 5734 5733 5732 5731 5728 5726 5725 5724 5721 5718 5717 5715 5714 5713 5712 5709 5707 5707 5706 5704 5703 5702 5700 5698 5697 5695 5694 5693 5691 5689 5688 5687 5685
5725 5722 5716 5705 5691 5690 5707 5715 5711 5719 5725 5729 5729 5729 5730 5731 5731 5730 5728 5727 5726 5724 5723 5722 5719 5716 5715 5714 5712 5710 5709 5707 5706 5705 5703 5702 5702 5700 5698 5696 5695 5693 5692 5690 5688 5686 5685 5683 5682
5716 5714 5712 5707 5705 5690 5686 5700 5730 5725 5727 5725 5726 5726 5726 5726 5726 5725 5725 5724 5723 5722 5719 5717 5716 5714 5712 5711 5710 5708 5706 5705 5703 5702 5701 5700 5699 5698 5697 5695 5693 5691 5689 5688 5686 5684 5682 5681 5679
5717 5712 5707 5690 5691 5697 5689 5696 5732 5729 5728 5726 5723 5723 5724 5723 5723 5723 5722 5720 5718 5718 5716 5714 5713 5712 5711 5710 5708 5705 5704 5702 5700 5698 5698 5697 5697 5696 5695 5693 5691 5690 5688 5686 5684 5681 5680 5678 5676